Regional Weather Roundup
Issued by NWS Kansas City/Pleasant Hill, MO

Home | Current Version | Previous Version | Text Only | Print | Product List | Glossary On
Versions: 1 2 3 4 5 6 7 8 9 10 11 12 13 14 15 16 17 18 19 20 21 22 23 24 25 26 27
000
ASUS43 KEAX 250110
RWREAX

WEATHER ROUNDUP FOR EASTERN KANSAS AND NORTHWEST MISSOURI
NATIONAL WEATHER SERVICE KANSAS CITY/PLEASANT HILL MO
800 PM CDT MON APR 24 2017

KSZ040-057-103>105-MOZ028-029-037-043-250200-
...KANSAS CITY METROPOLITAN AREA...

CITY           SKY/WX    TMP DP  RH WIND       PRES   REMARKS
K.C. INTL      PTCLDY    68  40  35 S17       29.60S
K.C. DOWNTOWN  CLEAR     71  38  29 S10       29.60S
LEES SUMMIT    PTCLDY    70  39  32 S10       29.62S
OLATHE - IXD   CLEAR     67  42  40 S10       29.62S
OLATHE - OJC   CLEAR     66  42  41 S7        29.62S
LAWRENCE       CLEAR     69  44  40 SE13      29.59F

$$

MOZ001>008-011>017-020>025-030>033-038>040-044>046-053-054-250200-
...NORTHERN AND CENTRAL MISSOURI...

CITY           SKY/WX    TMP DP  RH WIND       PRES   REMARKS
ST. JOSEPH     CLEAR     70  43  37 S17G24    29.58S
MOSBY          CLEAR     72  34  25 S8        29.61S
WHITEMAN AFB   PTCLDY    66  37  34 S7        29.61F
CLINTON        CLEAR     64  39  39 S7        29.64S
SEDALIA        CLOUDY    65  38  36 S9        29.64F
WARSAW         NOT AVBL
CHILLICOTHE      N/A     72  30  21 S8        29.61S
KIRKSVILLE     CLEAR     62  32  32 SE7       29.64F

$$

MOZ041-047>049-056>058-063>065-088>090-097-250200-
...EASTERN AND SOUTHERN MISSOURI...

CITY           SKY/WX    TMP DP  RH WIND       PRES   REMARKS
ST. LOUIS INTL PTCLDY    72  36  26 S12       29.72F
SPIRIT OF STL  PTCLDY    65  40  39 E5        29.69F
COLUMBIA       CLEAR     68  33  27 SE8       29.65F
JEFFERSON CITY CLEAR     72  34  24 SE7       29.64F
ROLLA          CLEAR     66  34  30 SE9       29.67F
OSAGE BEACH    CLEAR     70  36  28 S6        29.66F
SPRINGFIELD    CLEAR     67  36  31 SE12      29.65F
BRANSON        PTCLDY    68  32  26 S7        29.70S
JOPLIN         CLEAR     65  42  43 S6        29.64S
WEST PLAINS    CLEAR     66  39  37 SE3       29.73S

$$

IAZ060-094-KSZ022-034>040-054-083-096-NEZ052-066-093-250200-
...KANSAS...SOUTHEAST NEBRASKA AND IOWA...

CITY           SKY/WX    TMP DP  RH WIND       PRES   REMARKS
TOPEKA         CLOUDY    69  46  43 S12       29.57F
MANHATTAN      CLEAR     72  48  42 S13       29.52S
EMPORIA        PTCLDY    67  47  48 S14       29.58S
CHANUTE        CLOUDY    64  48  56 SE7       29.61S
WICHITA        CLOUDY    68  52  56 S12       29.55F
OMAHA          MOCLDY    72  42  34 S12G22    29.51S
LINCOLN        PTCLDY    68  48  48 S9        29.50S
FALLS CITY     CLEAR     68  42  38 S14       29.54F
LAMONI         CLEAR     68  32  26 S10       29.60R
DES MOINES     CLOUDY    68  31  25 S8        29.59S

$$





USA.gov is the U.S. government's official web portal to all federal, state and local government web resources and services.